KNE105 OEAB-OERK

Flight info

Callsign KNE105
Flight time N/A
Altitude 35000
Route DUMSI H75 IRBAB Q313 UMRAN H76 MOBAG
Aircraft A320/M-SDE3FGHIRWY/LB1

Departure

Time N/A
Airport Abha International Airport (OEAB)

Arrival

Time 2026-04-30 18:09
Airport King Khalid International Airport (OERK)
Time Latitude Longitude Altitude Speed Heading
2026-04-30 17:39 24.15924 46.10598 20048 ft 439 kts 25°
2026-04-30 17:41 24.33734 46.21044 16467 ft 413 kts 26°
2026-04-30 17:42 24.38411 46.23785 15571 ft 405 kts 26°
2026-04-30 17:42 24.45659 46.28038 14556 ft 367 kts 26°
2026-04-30 17:43 24.49917 46.30539 14065 ft 336 kts 25°
2026-04-30 17:44 24.55990 46.34106 13225 ft 328 kts 25°
2026-04-30 17:44 24.61955 46.37609 12235 ft 321 kts 26°
2026-04-30 17:46 24.71513 46.43507 10516 ft 312 kts 32°
2026-04-30 17:47 24.78576 46.48619 9297 ft 298 kts 33°
2026-04-30 17:48 24.85285 46.53398 8200 ft 261 kts 34°
2026-04-30 17:48 24.89983 46.55920 7258 ft 251 kts
2026-04-30 17:49 24.96253 46.53181 6102 ft 233 kts 332°
2026-04-30 17:50 25.01538 46.49824 6012 ft 215 kts 332°
2026-04-30 17:51 25.05448 46.47353 6008 ft 216 kts 332°
2026-04-30 17:52 25.09346 46.44883 6011 ft 216 kts 332°
2026-04-30 17:53 25.15832 46.40756 6015 ft 216 kts 332°
2026-04-30 17:54 25.21222 46.37319 5664 ft 224 kts 333°
2026-04-30 17:55 25.26620 46.33882 5467 ft 224 kts 333°
2026-04-30 17:56 25.32209 46.31690 5126 ft 209 kts 22°
2026-04-30 17:57 25.34594 46.35332 5012 ft 206 kts 71°
2026-04-30 17:58 25.35743 46.39861 5002 ft 205 kts 88°
2026-04-30 17:59 25.32724 46.44884 5009 ft 211 kts 148°
2026-04-30 18:00 25.27594 46.48127 5004 ft 212 kts 148°
2026-04-30 18:00 25.23757 46.50565 5001 ft 212 kts 148°
2026-04-30 18:01 25.21225 46.52174 5026 ft 207 kts 148°
2026-04-30 18:02 25.17746 46.54389 4996 ft 182 kts 147°
2026-04-30 18:02 25.14489 46.56455 5003 ft 179 kts 147°
2026-04-30 18:03 25.11246 46.58517 5006 ft 179 kts 148°
2026-04-30 18:04 25.08024 46.60562 4518 ft 172 kts 146°
2026-04-30 18:05 25.04172 46.63002 3684 ft 150 kts 146°
2026-04-30 18:06 25.00606 46.65264 2892 ft 146 kts 146°
2026-04-30 18:07 24.97092 46.67491 2100 ft 145 kts 148°
2026-04-30 18:08 24.95343 46.68599 2029 ft 53 kts 150°
2026-04-30 18:09 24.94833 46.69262 2032 ft 22 kts 150°
2026-04-30 18:10 24.94608 46.69702 2036 ft 20 kts 59°
2026-04-30 18:11 24.94929 46.70314 2038 ft 26 kts 59°
2026-04-30 18:11 24.95211 46.70850 2034 ft 28 kts 60°
2026-04-30 18:12 24.95535 46.70901 2038 ft 20 kts 330°
2026-04-30 18:13 24.95795 46.70736 2032 ft 19 kts 330°
2026-04-30 18:13 24.95898 46.70647 2033 ft 4 kts 262°
2026-04-30 18:14 24.95890 46.70593 2030 ft 2 kts 264°
2026-04-30 18:15 24.95887 46.70554 2030 ft 1 kts 264°
2026-04-30 18:15 24.95886 46.70547 2030 ft 0 kts 264°